Погода в Йоа-Хейвен

Канада     68°37′22″N   95°52′15″W
темп.,
°C
ветер,
м/с
пор.,
м/с
влажн.,
%
обл.,
%
осадки,
мм/ч
давл.,
гПа
погр.,
м
7 июля, чт
чт700:00+4юв006769 0.0 101510
03:00+5юз1166100 0.0 101510
06:00+5зюз2268100 0.0 101518
09:00+5зюз2266100 0.0 101532
12:00+5юз3365100 0.0 101542
15:00+5юз447191 0.0 101452
18:00+5юз45735 0.0 101462
21:00+6зюз44685 0.0 101331
8 июля, пт
пт800:00+7з44605 0.0 101312
03:00+7зюз33605 0.0 101411
06:00+7зюз336011 0.0 101418
09:00+7юз226122 0.0 101432
12:00+7ююз33625 0.0 101416
15:00+7ююз22605 0.0 101320
18:00+8ю22575 0.0 101215
21:00+7ююв33574 0.0 101212
9 июля, сб
сб900:00+6в11630 0.0 101210
03:00+7в22605 0.0 101210
06:00+6в336640 0.0 101213
09:00+5всв33690 0.0 101220
12:00+6св33697 0.0 101133
15:00+6св336560 0.0 101140
18:00+6св4575100 0.0 101128
21:00+6с4571100 0.0 101021
10 июля, вс
вс1000:00+5ссв4477100 0.0 101024
03:00+4ссв458084 0.0 101036
06:00+4ссв5580100 0.0 101146
09:00+4ссв457956 0.0 101240
12:00+5ссв4577100 0.0 101144
15:00+6св3474100 0.0 101148
18:00+6ссв447890 0.0 101130
21:00+4ссв448389 0.0 101120
11 июля, пн
пн1100:00+3всв33865 0.0 101212
03:00+4св22750 0.0 101210
06:00+5с22740 0.0 101219
09:00+5вюв11735 0.0 101335
12:00+5юз01735 0.0 101236
15:00+6ююз11696 0.0 101239
18:00+6зюз34695 0.0 101220
21:00+5юз44805 0.0 101115